This is the latest recevied weather packets stored in our database for station/object N3UJJ-1. If no packets are shown the sender has not sent any weather packets the latest 10 day(s).
| Time | Temp. | Humidity | Pressure | Rain* | Wind** | Luminosity | Snow |
|---|---|---|---|---|---|---|---|
| 1777988757 | 22.22° C | 58% | 1011.7 hPa | 0 mm | - | - | - |
| 1777987856 | 21.67° C | 59% | 1011.9 hPa | 0 mm | - | - | - |
| 1777986956 | 21.11° C | 59% | 1012.2 hPa | 0 mm | - | - | - |
| 1777986056 | 21.11° C | 60% | 1012.1 hPa | 0 mm | - | - | - |
| 1777985156 | 20° C | 62% | 1012 hPa | 0 mm | - | - | - |
| 1777984256 | 20° C | 62% | 1012 hPa | 0 mm | - | - | - |
| 1777983355 | 19.44° C | 63% | 1011.9 hPa | 0 mm | - | - | - |
| 1777982455 | 18.33° C | 66% | 1011.9 hPa | 0 mm | - | - | - |
| 1777981555 | 17.78° C | 67% | 1011.8 hPa | 0 mm | - | - | - |
| 1777980655 | 17.22° C | 67% | 1011.6 hPa | 0 mm | - | - | - |
| 1777979754 | 16.67° C | 68% | 1011.6 hPa | 0 mm | - | - | - |
| 1777978854 | 16.11° C | 69% | 1011.5 hPa | 0 mm | - | - | - |
| 1777977954 | 16.11° C | 68% | 1011.3 hPa | 0 mm | - | - | - |
| 1777977054 | 16.11° C | 68% | 1011.3 hPa | 0 mm | - | - | - |
| 1777976154 | 16.11° C | 67% | 1011.2 hPa | 0 mm | - | - | - |
| 1777975253 | 16.11° C | 67% | 1011.1 hPa | 0 mm | - | - | - |
| 1777974353 | 16.11° C | 67% | 1010.9 hPa | 0 mm | - | - | - |
| 1777973453 | 16.11° C | 67% | 1010.9 hPa | 0 mm | - | - | - |
| 1777972553 | 15.56° C | 68% | 1010.8 hPa | 0 mm | - | - | - |
| 1777971653 | 15.56° C | 69% | 1010.8 hPa | 0 mm | - | - | - |
| 1777970752 | 15.56° C | 69% | 1010.7 hPa | 0 mm | - | - | - |
| 1777969852 | 15.56° C | 69% | 1010.7 hPa | 0 mm | - | - | - |
| 1777968952 | 15.56° C | 69% | 1010.7 hPa | 0 mm | - | - | - |
| 1777968052 | 15.56° C | 69% | 1010.7 hPa | 0 mm | - | - | - |
| 1777967152 | 16.11° C | 68% | 1010.8 hPa | 0 mm | - | - | - |
* Rain latest hour (hover to see other rain measurements)
** Current wind speed in m/s (hover to see current wind gust speed)